contact:dominique.lefevre@mio.osupytheas.fr, maurice.libes@osupytheas.fr, didier.mallarino@osupytheas.fr
Project:EMSO http://www.emso-fr.org/EMSO-France
Depth: 2436.0 m
Title:EMSO Ligure Ouest : Data MII capteur CSTAR
DateTime,Latitude,Longitude,Instrument_Serial,Reference_Counts,Signal_Counts,Corrected_Signal_raw_counts,Calculated_Beam_c_inverse_meters,Internal_thermistor_counts
DateTime,Latitude,Longitude,Instrument_Serial,Reference_Counts,Signal_Counts,Corrected_Signal_raw_counts,Calculated_Beam_c_inverse_meters,Internal_thermistor_counts
2022-06-15T00:01:56,42.805,6.029,CST-1368DR,4701,5019,11378,01.266,551
2022-06-15T00:04:57,42.805,6.029,CST-1368DR,4701,5013,11365,01.271,551
2022-06-15T00:07:59,42.805,6.029,CST-1368DR,4701,4852,11000,01.402,551
2022-06-15T00:11:01,42.805,6.029,CST-1368DR,4701,4966,11259,01.309,551
2022-06-15T00:14:02,42.805,6.029,CST-1368DR,4701,5013,11365,01.271,551
2022-06-15T00:17:04,42.805,6.029,CST-1368DR,4701,5015,11369,01.270,551
2022-06-15T00:20:05,42.805,6.029,CST-1368DR,4701,5005,11347,01.277,551
2022-06-15T00:23:07,42.805,6.029,CST-1368DR,4701,5022,11384,01.264,551
2022-06-15T00:26:08,42.805,6.029,CST-1368DR,4701,5017,11374,01.268,551
2022-06-15T00:29:10,42.805,6.029,CST-1368DR,4701,5016,11372,01.269,551
2022-06-15T00:32:12,42.805,6.029,CST-1368DR,4701,5009,11356,01.274,551
2022-06-15T00:35:13,42.805,6.029,CST-1368DR,4701,5023,11386,01.264,551
2022-06-15T00:38:15,42.805,6.029,CST-1368DR,4702,5018,11373,01.268,551
2022-06-15T00:41:16,42.805,6.029,CST-1368DR,4701,5002,11340,01.280,551
2022-06-15T00:44:18,42.805,6.029,CST-1368DR,4701,5022,11385,01.264,551
2022-06-15T00:47:19,42.805,6.029,CST-1368DR,4702,5026,11391,01.262,551
2022-06-15T00:50:21,42.805,6.029,CST-1368DR,4701,5016,11372,01.269,551
2022-06-15T00:53:23,42.805,6.029,CST-1368DR,4702,5026,11393,01.261,551
2022-06-15T00:56:24,42.805,6.029,CST-1368DR,4701,5017,11373,01.268,551
2022-06-15T00:59:26,42.805,6.029,CST-1368DR,4701,5016,11370,01.269,551
2022-06-15T01:02:27,42.805,6.029,CST-1368DR,4700,4761,10796,01.476,551
2022-06-15T01:05:29,42.805,6.029,CST-1368DR,4701,5019,11379,01.266,551
2022-06-15T01:08:31,42.805,6.029,CST-1368DR,4702,5024,11387,01.263,551
2022-06-15T01:11:32,42.805,6.029,CST-1368DR,4701,5021,11382,01.265,551
2022-06-15T01:14:34,42.805,6.029,CST-1368DR,4701,5025,11392,01.262,551
2022-06-15T01:17:35,42.805,6.029,CST-1368DR,4702,5023,11385,01.264,551
2022-06-15T01:20:37,42.805,6.029,CST-1368DR,4701,5027,11395,01.260,551
2022-06-15T01:23:38,42.805,6.029,CST-1368DR,4701,5023,11387,01.263,551
2022-06-15T01:26:40,42.805,6.029,CST-1368DR,4701,5021,11383,01.265,551
2022-06-15T01:29:42,42.805,6.029,CST-1368DR,4701,5019,11379,01.266,551
2022-06-15T01:32:43,42.805,6.029,CST-1368DR,4701,5016,11371,01.269,551
2022-06-15T01:35:45,42.805,6.029,CST-1368DR,4701,5031,11404,01.257,551
2022-06-15T01:38:46,42.805,6.029,CST-1368DR,4701,5020,11381,01.265,551
2022-06-15T01:41:48,42.805,6.029,CST-1368DR,4701,5008,11353,01.275,551
2022-06-15T01:44:49,42.805,6.029,CST-1368DR,4701,5008,11352,01.276,551
2022-06-15T01:47:51,42.805,6.029,CST-1368DR,4701,5020,11380,01.266,551
2022-06-15T01:50:53,42.805,6.029,CST-1368DR,4701,5024,11389,01.263,551
2022-06-15T01:53:54,42.805,6.029,CST-1368DR,4701,5015,11369,01.270,551
2022-06-15T01:56:56,42.805,6.029,CST-1368DR,4701,5014,11367,01.270,551
2022-06-15T01:59:57,42.805,6.029,CST-1368DR,4701,5021,11383,01.265,551
2022-06-15T02:02:59,42.805,6.029,CST-1368DR,4701,5011,11360,01.273,551
2022-06-15T02:06:01,42.805,6.029,CST-1368DR,4701,5017,11373,01.268,551
2022-06-15T02:09:02,42.805,6.029,CST-1368DR,4701,4981,11291,01.297,551
2022-06-15T02:12:04,42.805,6.029,CST-1368DR,4701,5005,11347,01.277,551
2022-06-15T02:15:05,42.805,6.029,CST-1368DR,4701,4890,11085,01.371,551
2022-06-15T02:18:07,42.805,6.029,CST-1368DR,4701,5028,11398,01.259,551
2022-06-15T02:21:08,42.805,6.029,CST-1368DR,4701,5023,11387,01.263,551
2022-06-15T02:24:10,42.805,6.029,CST-1368DR,4702,5054,11454,01.240,551
2022-06-15T02:27:12,42.805,6.029,CST-1368DR,4702,5049,11443,01.244,551
2022-06-15T02:30:13,42.805,6.029,CST-1368DR,4701,5031,11404,01.257,551
2022-06-15T02:33:15,42.805,6.029,CST-1368DR,4701,5031,11406,01.257,551
2022-06-15T02:36:16,42.805,6.029,CST-1368DR,4701,5038,11421,01.251,551
2022-06-15T02:39:18,42.805,6.029,CST-1368DR,4702,5043,11431,01.248,551
2022-06-15T02:42:19,42.805,6.029,CST-1368DR,4702,5042,11428,01.249,551
2022-06-15T02:45:21,42.805,6.029,CST-1368DR,4701,5047,11442,01.244,551
2022-06-15T02:48:23,42.805,6.029,CST-1368DR,4701,5026,11393,01.261,551
2022-06-15T02:51:24,42.805,6.029,CST-1368DR,4701,5051,11452,01.241,551
2022-06-15T02:54:26,42.805,6.029,CST-1368DR,4701,5012,11363,01.272,551
2022-06-15T02:57:27,42.805,6.029,CST-1368DR,4702,5044,11432,01.248,551
2022-06-15T03:00:29,42.805,6.029,CST-1368DR,4700,4748,10765,01.488,551
2022-06-15T03:03:31,42.805,6.029,CST-1368DR,4701,5057,11465,01.236,551
2022-06-15T03:06:32,42.805,6.029,CST-1368DR,4701,5043,11432,01.248,551
2022-06-15T03:09:34,42.805,6.029,CST-1368DR,4701,5043,11432,01.248,551
2022-06-15T03:12:35,42.805,6.029,CST-1368DR,4702,5060,11470,01.234,551
2022-06-15T03:15:37,42.805,6.029,CST-1368DR,4701,5031,11406,01.257,551
2022-06-15T03:18:38,42.805,6.029,CST-1368DR,4701,5013,11364,01.271,551
2022-06-15T03:21:40,42.805,6.029,CST-1368DR,4702,5051,11449,01.242,551
2022-06-15T03:24:42,42.805,6.029,CST-1368DR,4701,5028,11398,01.259,551
2022-06-15T03:27:43,42.805,6.029,CST-1368DR,4701,5046,11440,01.245,551
2022-06-15T03:30:45,42.805,6.029,CST-1368DR,4701,5053,11455,01.239,551
2022-06-15T03:33:46,42.805,6.029,CST-1368DR,4701,5006,11349,01.277,551
2022-06-15T03:36:48,42.805,6.029,CST-1368DR,4701,5033,11409,01.256,551
2022-06-15T03:39:49,42.805,6.029,CST-1368DR,4701,5035,11415,01.253,551
2022-06-15T03:42:51,42.805,6.029,CST-1368DR,4701,5032,11408,01.256,551
2022-06-15T03:45:53,42.805,6.029,CST-1368DR,4701,5022,11386,01.264,551
2022-06-15T03:48:54,42.805,6.029,CST-1368DR,4701,5031,11404,01.257,551
2022-06-15T03:51:56,42.805,6.029,CST-1368DR,4701,5021,11382,01.265,551
2022-06-15T03:54:57,42.805,6.029,CST-1368DR,4701,5038,11421,01.251,551
2022-06-15T03:57:59,42.805,6.029,CST-1368DR,4701,5041,11428,01.249,551
2022-06-15T04:01:01,42.805,6.029,CST-1368DR,4701,5027,11396,01.260,551
2022-06-15T04:04:02,42.805,6.029,CST-1368DR,4701,5028,11399,01.259,551
2022-06-15T04:07:04,42.805,6.029,CST-1368DR,4701,5034,11413,01.254,551
2022-06-15T04:10:05,42.805,6.029,CST-1368DR,4701,5038,11421,01.251,551
2022-06-15T04:13:07,42.805,6.029,CST-1368DR,4701,5035,11415,01.253,551
2022-06-15T04:16:08,42.805,6.029,CST-1368DR,4701,5064,11481,01.230,551
2022-06-15T04:19:10,42.805,6.029,CST-1368DR,4701,5019,11378,01.266,551
2022-06-15T04:22:12,42.805,6.029,CST-1368DR,4701,5034,11412,01.255,551
2022-06-15T04:25:13,42.805,6.029,CST-1368DR,4701,5057,11465,01.236,551
2022-06-15T04:28:15,42.805,6.029,CST-1368DR,4701,5048,11444,01.243,551
2022-06-15T04:31:16,42.805,6.029,CST-1368DR,4701,5012,11363,01.272,551
2022-06-15T04:34:18,42.805,6.029,CST-1368DR,4701,5066,11486,01.229,551
2022-06-15T04:37:19,42.805,6.029,CST-1368DR,4701,5054,11458,01.238,551
2022-06-15T04:40:21,42.805,6.029,CST-1368DR,4701,5063,11479,01.231,551
2022-06-15T04:43:23,42.805,6.029,CST-1368DR,4701,5025,11391,01.262,551
2022-06-15T04:46:24,42.805,6.029,CST-1368DR,4701,5053,11455,01.239,551
2022-06-15T04:49:26,42.805,6.029,CST-1368DR,4701,5019,11377,01.267,551
2022-06-15T04:52:27,42.805,6.029,CST-1368DR,4701,5030,11402,01.258,551
2022-06-15T04:55:29,42.805,6.029,CST-1368DR,4701,5032,11408,01.256,551
2022-06-15T04:58:31,42.805,6.029,CST-1368DR,4703,5242,11878,01.094,551
2022-06-15T05:01:32,42.805,6.029,CST-1368DR,4703,5240,11873,01.096,551
2022-06-15T05:04:34,42.805,6.029,CST-1368DR,4703,5245,11885,01.092,551
2022-06-15T05:07:35,42.805,6.029,CST-1368DR,4702,5238,11873,01.096,551
2022-06-15T05:10:37,42.805,6.029,CST-1368DR,4703,5239,11871,01.097,551
2022-06-15T05:13:38,42.805,6.029,CST-1368DR,4702,5235,11865,01.099,551
2022-06-15T05:16:40,42.805,6.029,CST-1368DR,4702,5211,11810,01.117,551
2022-06-15T05:19:42,42.805,6.029,CST-1368DR,4702,5239,11875,01.095,551
2022-06-15T05:22:43,42.805,6.029,CST-1368DR,4702,5240,11878,01.094,551
2022-06-15T05:25:45,42.805,6.029,CST-1368DR,4702,5236,11868,01.098,551
2022-06-15T05:28:46,42.805,6.029,CST-1368DR,4703,5242,11878,01.094,551
2022-06-15T05:31:48,42.805,6.029,CST-1368DR,4703,5238,11869,01.097,551
2022-06-15T05:34:49,42.805,6.029,CST-1368DR,4703,5238,11869,01.097,551
2022-06-15T05:37:51,42.805,6.029,CST-1368DR,4703,5243,11880,01.094,551
2022-06-15T05:40:53,42.805,6.029,CST-1368DR,4702,5233,11861,01.100,551
2022-06-15T05:43:54,42.805,6.029,CST-1368DR,4703,5240,11875,01.095,551
2022-06-15T05:46:56,42.805,6.029,CST-1368DR,4701,5061,11474,01.233,551
2022-06-15T05:49:57,42.805,6.029,CST-1368DR,4702,5230,11855,01.102,551
2022-06-15T05:52:59,42.805,6.029,CST-1368DR,4702,5239,11875,01.095,551
2022-06-15T05:56:01,42.805,6.029,CST-1368DR,4703,5244,11883,01.093,551
2022-06-15T05:59:02,42.805,6.029,CST-1368DR,4703,5241,11877,01.095,551
2022-06-15T06:02:04,42.805,6.029,CST-1368DR,4702,5239,11874,01.096,551
2022-06-15T06:05:05,42.805,6.029,CST-1368DR,4702,5233,11862,01.100,551
2022-06-15T06:08:07,42.805,6.029,CST-1368DR,4703,5243,11882,01.093,551
2022-06-15T06:11:08,42.805,6.029,CST-1368DR,4702,5241,11880,01.094,551
2022-06-15T06:14:10,42.805,6.029,CST-1368DR,4702,5228,11850,01.104,551
2022-06-15T06:17:12,42.805,6.029,CST-1368DR,4702,5240,11876,01.095,551
2022-06-15T06:20:13,42.805,6.029,CST-1368DR,4702,5232,11859,01.101,551
2022-06-15T06:23:15,42.805,6.029,CST-1368DR,4702,5231,11857,01.102,551
2022-06-15T06:26:16,42.805,6.029,CST-1368DR,4702,5238,11872,01.096,551
2022-06-15T06:29:18,42.805,6.029,CST-1368DR,4702,5226,11846,01.105,551
2022-06-15T06:32:20,42.805,6.029,CST-1368DR,4702,5228,11849,01.104,551
2022-06-15T06:35:21,42.805,6.029,CST-1368DR,4702,5231,11856,01.102,551
2022-06-15T06:38:23,42.805,6.029,CST-1368DR,4702,5232,11859,01.101,551
2022-06-15T06:41:24,42.805,6.029,CST-1368DR,4702,5204,11796,01.122,551
2022-06-15T06:44:26,42.805,6.029,CST-1368DR,4702,5228,11849,01.104,551
2022-06-15T06:47:27,42.805,6.029,CST-1368DR,4702,5237,11870,01.097,551
2022-06-15T06:50:29,42.805,6.029,CST-1368DR,4702,5228,11849,01.104,551
2022-06-15T06:53:31,42.805,6.029,CST-1368DR,4702,5227,11846,01.105,551
2022-06-15T06:56:32,42.805,6.029,CST-1368DR,4702,5226,11846,01.105,551
2022-06-15T06:59:34,42.805,6.029,CST-1368DR,4702,5229,11853,01.103,551
2022-06-15T07:02:35,42.805,6.029,CST-1368DR,4702,5231,11857,01.102,551
2022-06-15T07:05:37,42.805,6.029,CST-1368DR,4702,5229,11852,01.103,551
2022-06-15T07:08:38,42.805,6.029,CST-1368DR,4702,5226,11845,01.106,551
2022-06-15T07:11:40,42.805,6.029,CST-1368DR,4702,5232,11858,01.101,551
2022-06-15T07:14:42,42.805,6.029,CST-1368DR,4702,5228,11849,01.104,551
2022-06-15T07:17:43,42.805,6.029,CST-1368DR,4703,5247,11889,01.091,551
2022-06-15T07:20:45,42.805,6.029,CST-1368DR,4702,5238,11872,01.096,551
2022-06-15T07:23:46,42.805,6.029,CST-1368DR,4702,5235,11866,01.098,551
2022-06-15T07:26:48,42.805,6.029,CST-1368DR,4702,5230,11853,01.103,551
2022-06-15T07:29:50,42.805,6.029,CST-1368DR,4702,5235,11866,01.098,551
2022-06-15T07:32:51,42.805,6.029,CST-1368DR,4702,5232,11858,01.101,551
2022-06-15T07:35:53,42.805,6.029,CST-1368DR,4702,5235,11866,01.098,551
2022-06-15T07:38:54,42.805,6.029,CST-1368DR,4702,5228,11850,01.104,551
2022-06-15T07:41:56,42.805,6.029,CST-1368DR,4702,5231,11857,01.102,551
2022-06-15T07:44:57,42.805,6.029,CST-1368DR,4702,5232,11858,01.101,551
2022-06-15T07:47:59,42.805,6.029,CST-1368DR,4702,5235,11866,01.098,551
2022-06-15T07:51:01,42.805,6.029,CST-1368DR,4702,5236,11868,01.098,551
2022-06-15T07:54:02,42.805,6.029,CST-1368DR,4702,5233,11861,01.100,551
2022-06-15T07:57:04,42.805,6.029,CST-1368DR,4702,5232,11859,01.101,551
2022-06-15T08:00:05,42.805,6.029,CST-1368DR,4702,5230,11854,01.103,551
2022-06-15T08:03:07,42.805,6.029,CST-1368DR,4702,5235,11865,01.099,551
2022-06-15T08:06:08,42.805,6.029,CST-1368DR,4702,5229,11852,01.103,551
2022-06-15T08:09:10,42.805,6.029,CST-1368DR,4702,5229,11853,01.103,551
2022-06-15T08:12:12,42.805,6.029,CST-1368DR,4701,5119,11604,01.188,551
2022-06-15T08:15:13,42.805,6.029,CST-1368DR,4702,5237,11870,01.097,551
2022-06-15T08:18:15,42.805,6.029,CST-1368DR,4702,5233,11860,01.100,551
2022-06-15T08:21:16,42.805,6.029,CST-1368DR,4702,5228,11849,01.104,551
2022-06-15T08:24:18,42.805,6.029,CST-1368DR,4702,5229,11851,01.104,551
2022-06-15T08:27:20,42.805,6.029,CST-1368DR,4702,5229,11852,01.103,551
2022-06-15T08:30:21,42.805,6.029,CST-1368DR,4702,5228,11849,01.104,551
2022-06-15T08:33:23,42.805,6.029,CST-1368DR,4702,5225,11843,01.106,551
2022-06-15T08:36:24,42.805,6.029,CST-1368DR,4702,5225,11843,01.106,551
2022-06-15T08:39:26,42.805,6.029,CST-1368DR,4702,5225,11842,01.107,551
2022-06-15T08:42:27,42.805,6.029,CST-1368DR,4702,5226,11844,01.106,551
2022-06-15T08:45:29,42.805,6.029,CST-1368DR,4702,5229,11851,01.104,551
2022-06-15T08:48:31,42.805,6.029,CST-1368DR,4702,5227,11846,01.105,551
2022-06-15T08:51:32,42.805,6.029,CST-1368DR,4702,5226,11845,01.106,551
2022-06-15T08:54:34,42.805,6.029,CST-1368DR,4702,5226,11845,01.106,551
2022-06-15T08:57:35,42.805,6.029,CST-1368DR,4702,5226,11846,01.105,551
2022-06-15T09:00:37,42.805,6.029,CST-1368DR,4702,5227,11846,01.105,551
2022-06-15T09:03:38,42.805,6.029,CST-1368DR,4702,5222,11837,01.108,551
2022-06-15T09:06:40,42.805,6.029,CST-1368DR,4702,5230,11853,01.103,551
2022-06-15T09:09:42,42.805,6.029,CST-1368DR,4702,5226,11845,01.106,551
2022-06-15T09:12:43,42.805,6.029,CST-1368DR,4702,5224,11841,01.107,551
2022-06-15T09:15:45,42.805,6.029,CST-1368DR,4701,4991,11315,01.289,551
2022-06-15T09:18:46,42.805,6.029,CST-1368DR,4702,5227,11847,01.105,551
2022-06-15T09:21:48,42.805,6.029,CST-1368DR,4702,5228,11849,01.104,551
2022-06-15T09:24:50,42.805,6.029,CST-1368DR,4702,5227,11846,01.105,551
2022-06-15T09:27:51,42.805,6.029,CST-1368DR,4702,5229,11851,01.104,551
2022-06-15T09:30:53,42.805,6.029,CST-1368DR,4702,5232,11859,01.101,551
2022-06-15T09:33:54,42.805,6.029,CST-1368DR,4702,5230,11855,01.102,551
2022-06-15T09:36:56,42.805,6.029,CST-1368DR,4702,5230,11855,01.102,551
2022-06-15T09:39:57,42.805,6.029,CST-1368DR,4702,5231,11856,01.102,550
2022-06-15T09:42:59,42.805,6.029,CST-1368DR,4702,5234,11862,01.100,551
2022-06-15T09:46:01,42.805,6.029,CST-1368DR,4702,5233,11862,01.100,551
2022-06-15T09:49:02,42.805,6.029,CST-1368DR,4702,5232,11858,01.101,551
2022-06-15T09:52:04,42.805,6.029,CST-1368DR,4702,5232,11858,01.101,551
2022-06-15T09:55:05,42.805,6.029,CST-1368DR,4702,5231,11857,01.102,551
2022-06-15T09:58:07,42.805,6.029,CST-1368DR,4702,5233,11862,01.100,551
2022-06-15T10:01:09,42.805,6.029,CST-1368DR,4702,5229,11851,01.104,551
2022-06-15T10:04:10,42.805,6.029,CST-1368DR,4702,5232,11859,01.101,551
2022-06-15T10:07:12,42.805,6.029,CST-1368DR,4702,5231,11857,01.102,551
2022-06-15T10:10:13,42.805,6.029,CST-1368DR,4702,5230,11855,01.102,551
2022-06-15T10:13:15,42.805,6.029,CST-1368DR,4702,5234,11863,01.099,551
2022-06-15T10:16:16,42.805,6.029,CST-1368DR,4702,5232,11858,01.101,551
2022-06-15T10:19:18,42.805,6.029,CST-1368DR,4702,5235,11865,01.099,551
2022-06-15T10:22:20,42.805,6.029,CST-1368DR,4702,5233,11861,01.100,551
2022-06-15T10:25:21,42.805,6.029,CST-1368DR,4702,5229,11852,01.103,551
2022-06-15T10:28:23,42.805,6.029,CST-1368DR,4702,5232,11858,01.101,551
2022-06-15T10:31:24,42.805,6.029,CST-1368DR,4702,5233,11862,01.100,551
2022-06-15T10:34:26,42.805,6.029,CST-1368DR,4702,5235,11866,01.098,551
2022-06-15T10:37:27,42.805,6.029,CST-1368DR,4702,5233,11861,01.100,551
2022-06-15T10:40:29,42.805,6.029,CST-1368DR,4702,5232,11858,01.101,551
2022-06-15T10:43:31,42.805,6.029,CST-1368DR,4702,5247,11893,01.089,551
2022-06-15T10:46:32,42.805,6.029,CST-1368DR,4702,5233,11861,01.100,551
2022-06-15T10:49:34,42.805,6.029,CST-1368DR,4702,5235,11866,01.098,551
2022-06-15T10:52:35,42.805,6.029,CST-1368DR,4702,5233,11860,01.100,551
2022-06-15T10:55:37,42.805,6.029,CST-1368DR,4702,5233,11861,01.100,551
2022-06-15T10:58:39,42.805,6.029,CST-1368DR,4702,5230,11854,01.103,551
2022-06-15T11:01:40,42.805,6.029,CST-1368DR,4702,5237,11870,01.097,551
2022-06-15T11:04:42,42.805,6.029,CST-1368DR,4701,5011,11360,01.273,551
2022-06-15T11:07:43,42.805,6.029,CST-1368DR,4702,5231,11857,01.102,551
2022-06-15T11:10:45,42.805,6.029,CST-1368DR,4702,5236,11867,01.098,551
2022-06-15T11:13:46,42.805,6.029,CST-1368DR,4702,5234,11864,01.099,551
2022-06-15T11:16:48,42.805,6.029,CST-1368DR,4702,5238,11873,01.096,551
2022-06-15T11:19:50,42.805,6.029,CST-1368DR,4702,5239,11875,01.095,551
2022-06-15T11:22:51,42.805,6.029,CST-1368DR,4702,5234,11863,01.099,551
2022-06-15T11:25:53,42.805,6.029,CST-1368DR,4702,5235,11865,01.099,551
2022-06-15T11:28:54,42.805,6.029,CST-1368DR,4702,5236,11867,01.098,551
2022-06-15T11:31:56,42.805,6.029,CST-1368DR,4702,5239,11874,01.096,551
2022-06-15T11:34:58,42.805,6.029,CST-1368DR,4702,5240,11878,01.094,551
2022-06-15T11:37:59,42.805,6.029,CST-1368DR,4702,5238,11872,01.096,551
2022-06-15T11:41:01,42.805,6.029,CST-1368DR,4702,5236,11867,01.098,551
2022-06-15T11:44:02,42.805,6.029,CST-1368DR,4702,5237,11870,01.097,551
2022-06-15T11:47:04,42.805,6.029,CST-1368DR,4702,5238,11872,01.096,551
2022-06-15T11:50:05,42.805,6.029,CST-1368DR,4702,5239,11874,01.096,551
2022-06-15T11:53:07,42.805,6.029,CST-1368DR,4702,5234,11864,01.099,551
2022-06-15T11:56:09,42.805,6.029,CST-1368DR,4702,5234,11863,01.099,551
2022-06-15T11:59:10,42.805,6.029,CST-1368DR,4702,5235,11866,01.098,551
2022-06-15T12:02:12,42.805,6.029,CST-1368DR,4702,5234,11864,01.099,551
2022-06-15T12:05:13,42.805,6.029,CST-1368DR,4702,5236,11867,01.098,551
2022-06-15T12:08:15,42.805,6.029,CST-1368DR,4702,5235,11866,01.098,551
2022-06-15T12:11:16,42.805,6.029,CST-1368DR,4702,5235,11865,01.099,551
2022-06-15T12:14:18,42.805,6.029,CST-1368DR,4702,5236,11867,01.098,551
2022-06-15T12:17:20,42.805,6.029,CST-1368DR,4702,5237,11869,01.097,551
2022-06-15T12:20:21,42.805,6.029,CST-1368DR,4702,5235,11866,01.098,551
2022-06-15T12:23:23,42.805,6.029,CST-1368DR,4702,5235,11865,01.099,551
2022-06-15T12:26:24,42.805,6.029,CST-1368DR,4702,5235,11865,01.099,551
2022-06-15T12:29:26,42.805,6.029,CST-1368DR,4700,4844,10983,01.408,551
2022-06-15T12:32:28,42.805,6.029,CST-1368DR,4702,5237,11870,01.097,551
2022-06-15T12:35:29,42.805,6.029,CST-1368DR,4702,5239,11875,01.095,551
2022-06-15T12:38:31,42.805,6.029,CST-1368DR,4702,5237,11870,01.097,551
2022-06-15T12:41:32,42.805,6.029,CST-1368DR,4702,5237,11870,01.097,551
2022-06-15T12:44:34,42.805,6.029,CST-1368DR,4702,5238,11873,01.096,551
2022-06-15T12:47:35,42.805,6.029,CST-1368DR,4702,5239,11874,01.096,551
2022-06-15T12:50:37,42.805,6.029,CST-1368DR,4702,5236,11868,01.098,551
2022-06-15T12:53:39,42.805,6.029,CST-1368DR,4702,5236,11867,01.098,551
2022-06-15T12:56:40,42.805,6.029,CST-1368DR,4702,5235,11866,01.098,551
2022-06-15T12:59:42,42.805,6.029,CST-1368DR,4702,5236,11868,01.098,551
2022-06-15T13:02:43,42.805,6.029,CST-1368DR,4702,5237,11870,01.097,551
2022-06-15T13:05:45,42.805,6.029,CST-1368DR,4702,5238,11872,01.096,551
2022-06-15T13:08:46,42.805,6.029,CST-1368DR,4702,5236,11867,01.098,551
2022-06-15T13:11:48,42.805,6.029,CST-1368DR,4702,5235,11866,01.098,551
2022-06-15T13:14:50,42.805,6.029,CST-1368DR,4702,5236,11868,01.098,551
2022-06-15T13:17:51,42.805,6.029,CST-1368DR,4702,5236,11867,01.098,551
2022-06-15T13:20:53,42.805,6.029,CST-1368DR,4702,5234,11864,01.099,551
2022-06-15T13:23:54,42.805,6.029,CST-1368DR,4702,5232,11859,01.101,551
2022-06-15T13:26:56,42.805,6.029,CST-1368DR,4702,5233,11860,01.100,551
2022-06-15T13:29:58,42.805,6.029,CST-1368DR,4702,5235,11865,01.099,551
2022-06-15T13:32:59,42.805,6.029,CST-1368DR,4702,5234,11862,01.100,551
2022-06-15T13:36:01,42.805,6.029,CST-1368DR,4702,5232,11858,01.101,551
2022-06-15T13:39:02,42.805,6.029,CST-1368DR,4702,5232,11858,01.101,551
2022-06-15T13:42:04,42.805,6.029,CST-1368DR,4702,5232,11858,01.101,551
2022-06-15T13:45:05,42.805,6.029,CST-1368DR,4702,5234,11863,01.099,551
2022-06-15T13:48:07,42.805,6.029,CST-1368DR,4702,5233,11862,01.100,551
2022-06-15T13:51:09,42.805,6.029,CST-1368DR,4702,5233,11861,01.100,551
2022-06-15T13:54:10,42.805,6.029,CST-1368DR,4702,5231,11856,01.102,551
2022-06-15T13:57:12,42.805,6.029,CST-1368DR,4702,5233,11860,01.100,551
2022-06-15T14:00:13,42.805,6.029,CST-1368DR,4702,5232,11859,01.101,551
2022-06-15T14:03:15,42.805,6.029,CST-1368DR,4702,5229,11851,01.104,551
2022-06-15T14:06:16,42.805,6.029,CST-1368DR,4702,5232,11859,01.101,551
2022-06-15T14:09:18,42.805,6.029,CST-1368DR,4702,5232,11859,01.101,551
2022-06-15T14:12:20,42.805,6.029,CST-1368DR,4702,5232,11859,01.101,551
2022-06-15T14:15:21,42.805,6.029,CST-1368DR,4702,5233,11862,01.100,551
2022-06-15T14:18:23,42.805,6.029,CST-1368DR,4702,5233,11861,01.100,551
2022-06-15T14:21:24,42.805,6.029,CST-1368DR,4702,5232,11858,01.101,551
2022-06-15T14:24:26,42.805,6.029,CST-1368DR,4702,5232,11859,01.101,551
2022-06-15T14:27:28,42.805,6.029,CST-1368DR,4702,5235,11865,01.099,551
2022-06-15T14:30:29,42.805,6.029,CST-1368DR,4702,5235,11866,01.098,551
2022-06-15T14:33:31,42.805,6.029,CST-1368DR,4702,5233,11861,01.100,551
2022-06-15T14:36:32,42.805,6.029,CST-1368DR,4702,5232,11858,01.101,551
2022-06-15T14:39:34,42.805,6.029,CST-1368DR,4702,5176,11731,01.144,551
2022-06-15T14:42:35,42.805,6.029,CST-1368DR,4702,5229,11851,01.104,551
2022-06-15T14:45:37,42.805,6.029,CST-1368DR,4702,5230,11854,01.103,551
2022-06-15T14:48:39,42.805,6.029,CST-1368DR,4702,5232,11858,01.101,551
2022-06-15T14:51:40,42.805,6.029,CST-1368DR,4702,5230,11855,01.102,551
2022-06-15T14:54:42,42.805,6.029,CST-1368DR,4702,5229,11851,01.104,551
2022-06-15T14:57:43,42.805,6.029,CST-1368DR,4702,5231,11857,01.102,551
2022-06-15T15:00:45,42.805,6.029,CST-1368DR,4702,5229,11853,01.103,551
2022-06-15T15:03:46,42.805,6.029,CST-1368DR,4702,5231,11857,01.102,551
2022-06-15T15:06:48,42.805,6.029,CST-1368DR,4702,5231,11856,01.102,551
2022-06-15T15:09:50,42.805,6.029,CST-1368DR,4702,5230,11854,01.103,551
2022-06-15T15:12:51,42.805,6.029,CST-1368DR,4702,5229,11853,01.103,551
2022-06-15T15:15:53,42.805,6.029,CST-1368DR,4702,5232,11858,01.101,551
2022-06-15T15:18:54,42.805,6.029,CST-1368DR,4702,5231,11857,01.102,551
2022-06-15T15:21:56,42.805,6.029,CST-1368DR,4702,5229,11853,01.103,551
2022-06-15T15:24:58,42.805,6.029,CST-1368DR,4702,5230,11853,01.103,551
2022-06-15T15:27:59,42.805,6.029,CST-1368DR,4702,5229,11852,01.103,551
2022-06-15T15:31:01,42.805,6.029,CST-1368DR,4702,5240,11876,01.095,551
2022-06-15T15:34:02,42.805,6.029,CST-1368DR,4702,5230,11854,01.103,551
2022-06-15T15:37:04,42.805,6.029,CST-1368DR,4702,5226,11845,01.106,551
2022-06-15T15:40:05,42.805,6.029,CST-1368DR,4702,5229,11851,01.104,551
2022-06-15T15:43:07,42.805,6.029,CST-1368DR,4702,5227,11848,01.105,551
2022-06-15T15:46:09,42.805,6.029,CST-1368DR,4702,5230,11853,01.103,551
2022-06-15T15:49:10,42.805,6.029,CST-1368DR,4701,5115,11596,01.191,551
2022-06-15T15:52:12,42.805,6.029,CST-1368DR,4702,5229,11851,01.104,551
2022-06-15T15:55:13,42.805,6.029,CST-1368DR,4702,5224,11840,01.107,551
2022-06-15T15:58:15,42.805,6.029,CST-1368DR,4702,5226,11846,01.105,551
2022-06-15T16:01:16,42.805,6.029,CST-1368DR,4702,5225,11842,01.107,551
2022-06-15T16:04:18,42.805,6.029,CST-1368DR,4702,5226,11846,01.105,551
2022-06-15T16:07:20,42.805,6.029,CST-1368DR,4701,5168,11716,01.149,551
2022-06-15T16:10:21,42.805,6.029,CST-1368DR,4702,5229,11851,01.104,551
2022-06-15T16:13:23,42.805,6.029,CST-1368DR,4702,5229,11852,01.103,551
2022-06-15T16:16:24,42.805,6.029,CST-1368DR,4702,5226,11844,01.106,551
2022-06-15T16:19:26,42.805,6.029,CST-1368DR,4702,5228,11849,01.104,551
2022-06-15T16:22:28,42.805,6.029,CST-1368DR,4702,5225,11844,01.106,551
2022-06-15T16:25:29,42.805,6.029,CST-1368DR,4702,5228,11850,01.104,551
2022-06-15T16:28:31,42.805,6.029,CST-1368DR,4701,5134,11640,01.175,551
2022-06-15T16:31:32,42.805,6.029,CST-1368DR,4702,5229,11852,01.103,551
2022-06-15T16:34:34,42.805,6.029,CST-1368DR,4702,5229,11851,01.104,551
2022-06-15T16:37:35,42.805,6.029,CST-1368DR,4702,5229,11852,01.103,551